Ballina Observation History
Time Wind Speed Temp Pressure Rel. Hum Rain
08/03:00am N 4-5 kts 13.5°c 1014.2 hPa 96% 34.8mm
08/02:30am N 5-6 kts 13.6°c 1014.4 hPa 96% 34.8mm
08/02:00am N 5-7 kts 13.6°c 1014.4 hPa 96% 34.8mm
08/01:52am N 4-5 kts 13.7°c 1014.5 hPa 96% 34.8mm
08/01:32am N 3-5 kts 13.7°c 1014.9 hPa 96% 34.8mm
08/01:30am N 4-5 kts 13.7°c 1014.9 hPa 96% 34.8mm
08/01:00am N 4-5 kts 13.7°c 1015.1 hPa 97% 34.8mm
08/12:30am N 4-5 kts 13.9°c 1015.4 hPa 97% 34.8mm
08/12:24am N 4-5 kts 13.9°c 1015.5 hPa 97% 34.8mm
08/12:00am N 4-6 kts 14.0°c 1015.7 hPa 97% 34.6mm
Time Wind Speed Temp Pressure Rel. Hum Rain
07/11:59pm N 4-6 kts 14.0°c 1015.7 hPa 97% 34.6mm
07/11:30pm N 4-5 kts 14.0°c 1015.9 hPa 97% 34.4mm
07/11:21pm N 5-7 kts 14.0°c 1015.9 hPa 97% 34.4mm
07/11:00pm N 4-6 kts 14.1°c 1016.1 hPa 97% 34.4mm
07/10:51pm N 5-6 kts 14.1°c 1016.1 hPa 97% 34.4mm
07/10:30pm N 4-6 kts 14.0°c 1016.4 hPa 97% 34.4mm
07/10:00pm NNE 3-6 kts 14.0°c 1016.1 hPa 97% 34.4mm
07/09:30pm NNE 5-6 kts 13.8°c 1016.2 hPa 97% 34.4mm
07/09:21pm NNE 4-5 kts 13.9°c 1016.5 hPa 97% 34.4mm
07/09:00pm NNE 5-6 kts 13.6°c 1017.1 hPa 97% 34.4mm
07/08:30pm E 5-6 kts 13.5°c 1016.7 hPa 97% 34.4mm
07/08:00pm E 5-6 kts 13.7°c 1016.7 hPa 96% 34.4mm
07/07:30pm ESE 1-3 kts 13.8°c 1016.8 hPa 96% 34.4mm
07/07:23pm ESE 1-4 kts 13.8°c 1016.7 hPa 96% 34.4mm
07/07:00pm WNW 4-5 kts 14.1°c 1018.0 hPa 96% 34.4mm
07/06:45pm W 5-7 kts 14.2°c 1017.9 hPa 95% 34.0mm
07/06:30pm W 6-7 kts 14.4°c 1018.0 hPa 96% 33.6mm
07/06:21pm WNW 5-6 kts 14.6°c 1017.7 hPa 96% 33.6mm
07/06:00pm W 5-6 kts 14.7°c 1017.4 hPa 96% 33.6mm
07/05:50pm NNW 2-5 kts 14.8°c 1017.5 hPa 96% 33.6mm
07/05:30pm W 8-13 kts 14.9°c 1017.4 hPa 96% 33.0mm
07/05:17pm W 12-15 kts 15.1°c 1017.2 hPa 96% 32.0mm
07/05:00pm W 8-11 kts 15.1°c 1017.1 hPa 96% 31.0mm
07/04:31pm W 6-7 kts 15.0°c 1016.2 hPa 96% 31.0mm
07/04:30pm W 6-7 kts 15.0°c 1016.1 hPa 96% 31.0mm
07/04:00pm W 6-8 kts 14.9°c 1015.2 hPa 96% 31.0mm
07/03:30pm WNW 5-8 kts 14.7°c 1015.3 hPa 96% 31.0mm
07/03:00pm WNW 6-11 kts 14.2°c 1015.4 hPa 96% 30.6mm
07/02:30pm WSW 9-11 kts 14.3°c 1014.8 hPa 97% 30.4mm
07/02:01pm W 8-12 kts 14.2°c 1015.0 hPa 96% 29.8mm
07/02:00pm W 9-12 kts 14.2°c 1014.9 hPa 96% 29.8mm
07/01:30pm WSW 8-11 kts 14.1°c 1014.9 hPa 97% 27.8mm
07/01:26pm WSW 7-10 kts 14.2°c 1015.1 hPa 97% 27.2mm
07/01:25pm W 6-9 kts 14.3°c 1015.1 hPa 97% 27.2mm
07/01:10pm ESE 3-9 kts 13.9°c 1015.1 hPa 97% 26.4mm
07/01:00pm WSW 8-11 kts 14.0°c 1015.0 hPa 97% 26.4mm
07/12:50pm W 9-12 kts 13.0°c 1015.1 hPa 97% 25.6mm
07/12:47pm W 9-12 kts 13.0°c 1015.2 hPa 97% 25.0mm
07/12:35pm WNW 7-11 kts 12.8°c 1015.7 hPa 97% 24.8mm
07/12:30pm W 6-8 kts 12.7°c 1015.5 hPa 97% 24.2mm
07/12:29pm W 6-8 kts 12.7°c 1015.6 hPa 97% 24.2mm
07/12:25pm SW 5-7 kts 12.8°c 1015.5 hPa 97% 24.0mm
07/12:07pm W 5-7 kts 12.7°c 1016.7 hPa 97% 23.2mm
07/12:00pm WNW 7-12 kts 12.8°c 1017.0 hPa 97% 22.8mm
07/11:56am WSW 7-12 kts 12.6°c 1017.2 hPa 96% 22.8mm
07/11:30am WSW 7-11 kts 12.5°c 1018.2 hPa 96% 19.8mm
07/11:00am W 10-12 kts 12.5°c 1018.6 hPa 95% 15.2mm
07/10:30am W 8-15 kts 15.6°c 1019.0 hPa 86% 7.2mm
07/10:14am WNW 9-13 kts 15.1°c 1019.1 hPa 90% 0.4mm
07/10:00am ENE 8-15 kts 16.6°c 1019.3 hPa 74% 0.0mm
07/09:30am ESE 12-16 kts 17.9°c 1019.2 hPa 70% 0.0mm
07/09:00am ESE 11-16 kts 17.7°c 1019.1 hPa 69% 0.0mm
07/08:30am ESE 11-17 kts 18.0°c 1019.3 hPa 68% 0.0mm
07/08:00am ESE 11-15 kts 18.0°c 1019.6 hPa 66% 0.0mm
07/07:30am ESE 9-13 kts 17.6°c 1019.6 hPa 66% 0.0mm
07/07:00am ESE 8-12 kts 17.4°c 1019.8 hPa 66% 0.0mm
07/06:30am SE 9-13 kts 17.4°c 1019.5 hPa 66% 0.0mm
07/06:00am SE 8-12 kts 17.3°c 1019.4 hPa 67% 0.0mm
07/05:30am SE 8-11 kts 17.3°c 1019.3 hPa 66% 0.0mm
07/05:00am SE 8-10 kts 17.2°c 1019.1 hPa 66% 0.0mm
07/04:30am SE 7-11 kts 16.8°c 1019.1 hPa 68% 0.0mm
07/04:00am SE 8-11 kts 16.8°c 1019.0 hPa 69% 0.0mm
07/03:30am SE 8-10 kts 16.2°c 1018.9 hPa 74% 0.0mm
07/03:00am WSW 1-3 kts 13.5°c 1019.3 hPa 87% 0.0mm
07/02:30am WSW 3-5 kts 13.5°c 1019.5 hPa 85% 0.0mm
07/02:00am W 5-6 kts 13.3°c 1019.6 hPa 85% 0.0mm
07/01:30am W 5-6 kts 13.1°c 1019.8 hPa 87% 0.0mm
07/01:00am WSW 4-5 kts 12.9°c 1020.0 hPa 89% 0.0mm
07/12:30am W 3-4 kts 12.6°c 1020.0 hPa 90% 0.0mm
07/12:00am W 3 kts 11.8°c 1020.0 hPa 94% 0.0mm
Time Wind Speed Temp Pressure Rel. Hum Rain
06/11:30pm W 3-4 kts 11.2°c 1020.2 hPa 94% 0.0mm
06/11:00pm W 5-6 kts 10.5°c 1020.0 hPa 94% 0.0mm
06/10:30pm W 3-5 kts 10.1°c 1019.8 hPa 93% 0.0mm
06/10:00pm W 3-4 kts 10.8°c 1019.8 hPa 93% 0.0mm
06/09:30pm WSW 2-5 kts 10.6°c 1019.8 hPa 93% 0.0mm
06/09:00pm WSW 3-4 kts 10.3°c 1019.7 hPa 91% 0.0mm
06/08:30pm SSE 4-5 kts 11.1°c 1019.5 hPa 91% 0.0mm
06/08:00pm ESE 2-3 kts 11.0°c 1019.2 hPa 90% 0.0mm
06/07:30pm ESE 3-4 kts 12.0°c 1019.0 hPa 90% 0.0mm
06/07:00pm CALM 0 kts 12.1°c 1018.6 hPa 89% 0.0mm
06/06:30pm CALM 0 kts 12.9°c 1018.1 hPa 86% 0.0mm
06/06:00pm CALM 0 kts 14.3°c 1017.7 hPa 79% 0.0mm
06/05:30pm CALM 0 kts 15.6°c 1017.3 hPa 75% 0.0mm
06/05:00pm ESE 5-6 kts 17.4°c 1017.0 hPa 61% 0.0mm
06/04:30pm SE 7-8 kts 18.6°c 1016.8 hPa 54% 0.0mm
06/04:00pm SE 7-9 kts 19.0°c 1016.7 hPa 53% 0.0mm
06/03:30pm SE 6-9 kts 19.3°c 1016.6 hPa 48% 0.0mm
06/03:00pm SSE 9-11 kts 19.3°c 1016.5 hPa 47% 0.0mm
06/02:30pm SSE 9-13 kts 19.5°c 1016.3 hPa 51% 0.0mm
06/02:00pm S 10-13 kts 19.4°c 1016.3 hPa 47% 0.0mm
06/01:30pm S 10-14 kts 19.0°c 1016.4 hPa 54% 0.0mm
06/01:00pm S 10-13 kts 18.9°c 1016.7 hPa 54% 0.0mm
06/12:30pm S 9-13 kts 19.3°c 1017.1 hPa 53% 0.0mm
06/12:00pm S 11-14 kts 19.1°c 1017.6 hPa 34% 0.0mm
06/11:30am SSW 10-13 kts 19.0°c 1017.9 hPa 30% 0.0mm
06/11:00am SSW 9-12 kts 17.9°c 1018.5 hPa 39% 0.0mm
06/10:30am S 9-12 kts 17.3°c 1018.8 hPa 48% 0.0mm
06/10:00am SSW 8-12 kts 17.2°c 1018.6 hPa 44% 0.0mm
06/09:30am SW 6-9 kts 16.5°c 1018.9 hPa 44% 0.0mm
06/09:00am WSW 6-9 kts 15.6°c 1018.6 hPa 62% 0.0mm
06/08:30am SSW 5-7 kts 14.3°c 1018.4 hPa 67% 0.0mm
06/08:00am WNW 3-4 kts 13.1°c 1018.0 hPa 80% 0.0mm
06/07:30am WSW 5-7 kts 11.6°c 1017.7 hPa 85% 0.0mm
06/07:00am WSW 5-7 kts 9.7°c 1017.1 hPa 89% 0.0mm
06/06:30am W 6-7 kts 8.2°c 1016.8 hPa 87% 0.0mm
06/06:00am W 2-4 kts 7.1°c 1016.0 hPa 92% 0.0mm
06/05:30am W 1-3 kts 6.9°c 1015.5 hPa 94% 0.0mm
06/05:00am CALM 0 kts 6.7°c 1015.3 hPa 95% 0.0mm
06/04:30am W 1-4 kts 7.2°c 1015.2 hPa 95% 0.0mm
06/04:00am CALM 0 kts 7.2°c 1015.1 hPa 95% 0.0mm
06/03:47am CALM 0 kts 7.6°c 1015.1 hPa 95% 0.0mm
06/03:30am CALM 0 kts 8.4°c 1015.1 hPa 96% 0.0mm
06/03:12am CALM 0 kts 7.9°c 1015.1 hPa 95% 0.0mm
06/03:00am CALM 0 kts 7.7°c 1015.1 hPa 95% 0.0mm
06/02:30am CALM 0 kts 8.4°c 1015.0 hPa 95% 0.0mm
06/02:00am CALM 0 kts 8.2°c 1015.1 hPa 94% 0.0mm
06/01:30am CALM 0 kts 8.7°c 1015.1 hPa 93% 0.0mm
06/01:00am CALM 0 kts 8.9°c 1015.4 hPa 92% 0.0mm
06/12:30am CALM 0 kts 9.4°c 1015.6 hPa 92% 0.0mm
06/12:00am CALM 0 kts 10.0°c 1015.5 hPa 89% 0.0mm